Skip Page Navigation
NASA JPL Caltech
NASA Logo - Jet Propulsion Laboratory + View the NASA Portal
+ Near-Earth Object (NEO) Program
Search JPL
JPL Home Earth Solar System Stars & Galaxies Technology
JPL Solar System Dynamics
BODIES ORBITS EPHEMERIDES TOOLS PHYSICAL DATA DISCOVERY FAQ SITE MAP
JPL Small-Body Database Browser
Search: [ help ]  
6065 Chesneau (1987 OC)
Classification: Main-belt Asteroid          SPK-ID: 2006065
Ephemeris | Orbit Diagram | Orbital Elements | Physical Parameters | Discovery Circumstances ]

[ show orbit diagram ]
Orbital Elements at Epoch 2457000.5 (2014-Dec-09.0) TDB
Reference: JPL 12 (heliocentric ecliptic J2000)
 Element Value Uncertainty (1-sigma)   Units 
e .2086405623616066 7.1667e-08  
a 2.342854700331259 1.6068e-08 AU
q 1.854040178122612 1.7054e-07 AU
i 23.81654205834251 8.7817e-06 deg
node 271.6932578331131 1.7459e-05 deg
peri 48.15969969795328 2.6415e-05 deg
M 220.8905204056333 2.4732e-05 deg
tp 2457506.640028181165
(2016-Apr-28.14002818)
9.3335e-05 JED
period 1309.834604201899
3.59
1.3475e-05
3.689e-08
d
yr
n .2748438610837841 2.8275e-09 deg/d
Q 2.831669222539906 1.9421e-08 AU
  Orbit Determination Parameters
   # obs. used (total)      700  
   data-arc span      10150 days (27.79 yr)  
   first obs. used      1987-07-27  
   last obs. used      2015-05-11  
   planetary ephem.      DE431  
   SB-pert. ephem.      SB431-BIG16  
   condition code      0  
   fit RMS      .50341  
   data source      ORB  
   producer      Otto Matic  
   solution date      2015-Jun-04 15:53:35  

Additional Information
 Earth MOID = .897039 AU 
 T_jup = 3.422 
[ show covariance matrix ]

Ephemeris | Orbit Diagram | Orbital Elements | Physical Parameters | Discovery Circumstances ]

Physical Parameter Table
Parameter Symbol Value Units Sigma Reference Notes
absolute magnitude H 13.1 mag n/a MPO250267  
rotation period rot_per 33.15 h n/a LCDB (Rev. 2015-May); Warner et al., 2009 Result based on less than full coverage, so that the period may be wrong by 30 percent or so.
Published Reference List:
[Warner, B.D. (2006) Minor Planet Bul. 33, 35-39.]

6065 Chesneau           Discovered 1987 July 27 by E. F. Helin and R. S. Dunbar at Palomar.
Olivier Chesneau (b. 1972) is a French astronomer who has studied circumstellar environments with the ESO VLT Interferometer, from proto-planetary disks to nova envelopes. His pioneering work produced frequent and unique discoveries with a worldwide network of collaborations that he assembled since the early 2000s.
NOTE: some special characters may not display properly (any characters within {} are an attempt to place the proper accent above a character)
Reference: MPC batch dated 2014-04-15Last Updated: 2014-04-17

Alternate Designations
 1987 OC = 1989 CG6 
Ephemeris | Orbit Diagram | Orbital Elements | Physical Parameters | Discovery Circumstances ]
ABOUT SSD CREDITS/AWARDS PRIVACY/COPYRIGHT GLOSSARY LINKS
FirstGov 2015-Aug-01 16:12 UT
(server date/time)  
NASA Home Page
Site Manager:   Ryan S. Park
Webmaster  Alan B. Chamberlin